| time (UTC) | temp F | wind direction | speed MPH | gust MPH | rain 1hr in | rain 24hr in | rain mn in | humidity % | barometer mb |
| 20260904031505 | 62 | 339 | 5.0 | 13.0 | 0.00 | 0.00 | 0.00 | 52 | 1017.2 |
| 20260904031006 | 61 | 310 | 5.0 | 10.0 | 0.00 | 0.00 | 0.00 | 54 | 1017.3 |
| 20260904030506 | 61 | 299 | 5.0 | 12.0 | 0.00 | 0.00 | 0.00 | 53 | 1017.4 |
| 20260904030006 | 61 | 345 | 3.0 | 12.0 | 0.00 | 0.00 | 0.00 | 53 | 1017.5 |
| 20260904025505 | 61 | 293 | 3.0 | 10.0 | 0.00 | 0.00 | 0.00 | 53 | 1017.6 |
| 20260904025011 | 62 | 292 | 3.0 | 11.0 | 0.00 | 0.00 | 0.00 | 53 | 1017.7 |
| 20260904025005 | 61 | 289 | 3.0 | 10.0 | 0.00 | 0.00 | 0.00 | 53 | 1017.7 |
| 20260904024003 | 61 | 337 | 5.0 | 14.0 | 0.00 | 0.00 | 0.00 | 54 | 1017.7 |
| 20260904023504 | 60 | 289 | 6.0 | 14.0 | 0.00 | 0.00 | 0.00 | 53 | 1017.9 |
| 20260904023003 | 60 | 18 | 6.0 | 13.0 | 0.00 | 0.00 | 0.00 | 51 | 1017.9 |
| 20260904022503 | 61 | 308 | 5.0 | 13.0 | 0.00 | 0.00 | 0.00 | 51 | 1018.1 |
| 20260904022004 | 61 | 322 | 4.0 | 12.0 | 0.00 | 0.00 | 0.00 | 51 | 1018.2 |
| 20260904021502 | 61 | 301 | 7.0 | 15.0 | 0.00 | 0.00 | 0.00 | 53 | 1018.3 |
| 20260904021004 | 60 | 317 | 8.0 | 17.0 | 0.00 | 0.00 | 0.00 | 53 | 1018.5 |
| 20260904020504 | 60 | 303 | 8.0 | 17.0 | 0.00 | 0.00 | 0.00 | 53 | 1018.5 |
| 20260904020004 | 60 | 349 | 8.0 | 17.0 | 0.00 | 0.00 | 0.00 | 52 | 1018.6 |
| 20260904015504 | 59 | 308 | 7.0 | 13.0 | 0.00 | 0.00 | 0.00 | 54 | 1018.8 |
| 20260904015009 | 60 | 304 | 6.0 | 12.0 | 0.00 | 0.00 | 0.00 | 54 | 1018.8 |
| 20260904015002 | 59 | 306 | 7.0 | 13.0 | 0.00 | 0.00 | 0.00 | 54 | 1018.7 |
| 20260904014000 | 60 | 340 | 6.0 | 13.0 | 0.00 | 0.00 | 0.00 | 54 | 1018.8 |
| 20260904013501 | 60 | 293 | 6.0 | 14.0 | 0.00 | 0.01 | 0.00 | 55 | 1018.8 |
| 20260904013002 | 59 | 353 | 6.0 | 15.0 | 0.00 | 0.01 | 0.00 | 54 | 1018.9 |
| 20260904012504 | 59 | 347 | 6.0 | 15.0 | 0.00 | 0.03 | 0.00 | 54 | 1018.9 |
| 20260904012004 | 58 | 289 | 7.0 | 13.0 | 0.00 | 0.03 | 0.00 | 55 | 1018.9 |
| 20260904011502 | 58 | 316 | 6.0 | 13.0 | 0.00 | 0.03 | 0.00 | 53 | 1019.0 |
| 20260904011002 | 59 | 350 | 5.0 | 13.0 | 0.00 | 0.03 | 0.00 | 54 | 1019.1 |
| 20260904010502 | 58 | 300 | 6.0 | 11.0 | 0.00 | 0.03 | 0.00 | 54 | 1019.1 |
| 20260904010001 | 58 | 343 | 7.0 | 17.0 | 0.00 | 0.03 | 0.00 | 53 | 1019.4 |
| 20260904005500 | 58 | 323 | 7.0 | 17.0 | 0.00 | 0.03 | 0.00 | 52 | 1019.6 |
| 20260904005002 | 58 | 330 | 7.0 | 14.0 | 0.00 | 0.03 | 0.00 | 52 | 1019.8 |
| 20260904004501 | 58 | 306 | 6.0 | 13.0 | 0.00 | 0.03 | 0.00 | 52 | 1019.7 |
| 20260904004002 | 58 | 318 | 7.0 | 14.0 | 0.00 | 0.03 | 0.00 | 53 | 1019.9 |
| 20260904003501 | 58 | 299 | 8.0 | 14.0 | 0.00 | 0.03 | 0.00 | 52 | 1020.0 |
| 20260904003003 | 58 | 314 | 7.0 | 14.0 | 0.00 | 0.03 | 0.00 | 53 | 1020.1 |
| 20260904002501 | 58 | 304 | 7.0 | 15.0 | 0.00 | 0.04 | 0.00 | 52 | 1020.1 |
| 20260904002001 | 58 | 301 | 8.0 | 15.0 | 0.00 | 0.04 | 0.00 | 53 | 1020.1 |
| 20260904001458 | 58 | 19 | 8.0 | 15.0 | 0.00 | 0.04 | 0.00 | 54 | 1020.1 |
| 20260904001001 | 58 | 315 | 6.0 | 15.0 | 0.00 | 0.04 | 0.00 | 54 | 1020.2 |
| 20260904000457 | 58 | 306 | 6.0 | 14.0 | 0.00 | 0.04 | 0.00 | 54 | 1020.2 |
| 20260904000004 | 57 | 297 | 7.0 | 16.0 | 0.00 | 0.05 | 0.00 | 55 | 1020.1 |
| 20260903235958 | 57 | 302 | 7.0 | 16.0 | 0.00 | 0.05 | 0.00 | 56 | 1020.2 |
| 20260903235624 | 57 | 289 | 5.0 | 16.0 | 0.00 | 0.05 | 0.00 | 56 | 1020.4 |
| 20260903234504 | 57 | 318 | 6.0 | 14.0 | 0.00 | 0.05 | 0.00 | 59 | 1020.2 |
| 20260903234458 | 57 | 334 | 5.0 | 14.0 | 0.00 | 0.05 | 0.00 | 58 | 1020.2 |
| 20260903233454 | 56 | 313 | 6.0 | 14.0 | 0.00 | 0.05 | 0.00 | 59 | 1020.4 |
| 20260903232954 | 56 | 355 | 7.0 | 14.0 | 0.00 | 0.05 | 0.00 | 62 | 1020.7 |
| 20260903232455 | 55 | 298 | 6.0 | 15.0 | 0.00 | 0.05 | 0.00 | 62 | 1020.8 |
| 20260903231954 | 55 | 310 | 5.0 | 15.0 | 0.00 | 0.05 | 0.00 | 62 | 1020.8 |
| 20260903231454 | 55 | 312 | 5.0 | 9.0 | 0.00 | 0.05 | 0.00 | 63 | 1020.8 |
| 20260903230954 | 55 | 306 | 6.0 | 11.0 | 0.00 | 0.05 | 0.00 | 64 | 1020.7 |
| 20260903230456 | 54 | 326 | 6.0 | 11.0 | 0.00 | 0.05 | 0.00 | 64 | 1020.8 |
| 20260903225955 | 54 | 324 | 5.0 | 10.0 | 0.00 | 0.05 | 0.00 | 65 | 1020.7 |
| 20260903225456 | 54 | 292 | 5.0 | 9.0 | 0.00 | 0.05 | 0.00 | 66 | 1020.7 |
| 20260903224953 | 53 | 313 | 4.0 | 8.0 | 0.00 | 0.05 | 0.00 | 67 | 1020.7 |
| 20260903224452 | 53 | 326 | 3.0 | 8.0 | 0.00 | 0.05 | 0.00 | 68 | 1020.8 |
| 20260903223958 | 52 | 324 | 3.0 | 8.0 | 0.00 | 0.05 | 0.00 | 70 | 1020.8 |
| 20260903223952 | 53 | 353 | 3.0 | 8.0 | 0.00 | 0.05 | 0.00 | 69 | 1020.8 |
| 20260903222954 | 52 | 339 | 2.0 | 6.0 | 0.00 | 0.05 | 0.00 | 71 | 1020.7 |
| 20260903222454 | 51 | 332 | 2.0 | 6.0 | 0.00 | 0.05 | 0.00 | 73 | 1020.5 |
| 20260903221954 | 51 | 351 | 2.0 | 6.0 | 0.00 | 0.05 | 0.00 | 73 | 1020.5 |
| 20260903221452 | 50 | 348 | 1.0 | 6.0 | 0.00 | 0.05 | 0.00 | 74 | 1020.4 |
| 20260903220954 | 50 | 342 | 1.0 | 5.0 | 0.00 | 0.05 | 0.00 | 76 | 1020.4 |
| 20260903220453 | 49 | 341 | 1.0 | 5.0 | 0.00 | 0.05 | 0.00 | 76 | 1020.4 |
| 20260903215954 | 49 | 337 | 1.0 | 5.0 | 0.00 | 0.05 | 0.00 | 77 | 1020.3 |
| 20260903215452 | 49 | 337 | 0.0 | 5.0 | 0.00 | 0.05 | 0.00 | 78 | 1020.2 |
| 20260903214953 | 48 | 336 | 0.0 | 1.0 | 0.00 | 0.05 | 0.00 | 79 | 1020.2 |
| 20260903214452 | 48 | 335 | 0.0 | 1.0 | 0.00 | 0.05 | 0.00 | 79 | 1020.2 |
| 20260903213958 | 47 | 335 | 0.0 | 2.0 | 0.00 | 0.05 | 0.00 | 79 | 1020.1 |
| 20260903213954 | 48 | 335 | 0.0 | 2.0 | 0.00 | 0.05 | 0.00 | 79 | 1020.2 |
| 20260903212952 | 47 | 335 | 0.0 | 2.0 | 0.00 | 0.05 | 0.00 | 79 | 1020.0 |
| 20260903212452 | 47 | 335 | 0.0 | 2.0 | 0.00 | 0.05 | 0.00 | 80 | 1020.0 |
| 20260903211958 | 47 | 335 | 0.0 | 1.0 | 0.00 | 0.05 | 0.00 | 80 | 1019.9 |
| 20260903211954 | 47 | 335 | 0.0 | 2.0 | 0.00 | 0.05 | 0.00 | 80 | 1019.9 |
| 20260903211615 | 47 | 334 | 0.0 | 1.0 | 0.00 | 0.05 | 0.00 | 80 | 1019.9 |
| 20260903210452 | 47 | 334 | 0.0 | 3.0 | 0.00 | 0.05 | 0.00 | 80 | 1019.9 |
| 20260903205954 | 47 | 334 | 0.0 | 3.0 | 0.00 | 0.05 | 0.00 | 80 | 1019.8 |
| 20260903205452 | 47 | 334 | 0.0 | 3.0 | 0.00 | 0.05 | 0.00 | 80 | 1019.7 |
| 20260903204952 | 47 | 333 | 0.0 | 2.0 | 0.00 | 0.05 | 0.00 | 80 | 1019.7 |
| 20260903204453 | 47 | 333 | 0.0 | 2.0 | 0.00 | 0.05 | 0.00 | 81 | 1019.8 |
| 20260903203952 | 47 | 333 | 0.0 | 2.0 | 0.00 | 0.05 | 0.00 | 81 | 1019.7 |
| 20260903203450 | 47 | 332 | 0.0 | 3.0 | 0.00 | 0.05 | 0.00 | 81 | 1019.7 |
| 20260903202950 | 47 | 331 | 1.0 | 4.0 | 0.00 | 0.05 | 0.00 | 81 | 1019.7 |
| 20260903202451 | 47 | 330 | 1.0 | 4.0 | 0.00 | 0.05 | 0.00 | 81 | 1019.6 |
| 20260903201956 | 47 | 326 | 0.0 | 3.0 | 0.00 | 0.05 | 0.00 | 81 | 1019.5 |
| 20260903201950 | 47 | 327 | 0.0 | 3.0 | 0.00 | 0.05 | 0.00 | 81 | 1019.6 |
| 20260903201617 | 47 | 325 | 0.0 | 3.0 | 0.00 | 0.05 | 0.00 | 81 | 1019.5 |
| 20260903200452 | 47 | 324 | 0.0 | 1.0 | 0.00 | 0.05 | 0.00 | 81 | 1019.6 |
| 20260903195951 | 47 | 324 | 0.0 | 1.0 | 0.00 | 0.05 | 0.00 | 81 | 1019.5 |
| 20260903195451 | 47 | 324 | 0.0 | 0.0 | 0.00 | 0.05 | 0.00 | 81 | 1019.5 |
| 20260903194951 | 47 | 324 | 0.0 | 0.0 | 0.00 | 0.05 | 0.00 | 81 | 1019.5 |
| 20260903194449 | 47 | 324 | 0.0 | 1.0 | 0.00 | 0.05 | 0.00 | 81 | 1019.5 |
| 20260903193949 | 47 | 324 | 0.0 | 1.0 | 0.00 | 0.05 | 0.00 | 81 | 1019.5 |
| 20260903193456 | 47 | 324 | 0.0 | 2.0 | 0.00 | 0.05 | 0.00 | 82 | 1019.5 |
| 20260903193450 | 47 | 324 | 0.0 | 1.0 | 0.00 | 0.05 | 0.00 | 82 | 1019.5 |
| 20260903192451 | 47 | 324 | 0.0 | 2.0 | 0.00 | 0.05 | 0.00 | 82 | 1019.5 |
| 20260903191950 | 47 | 324 | 0.0 | 2.0 | 0.00 | 0.05 | 0.00 | 82 | 1019.5 |
| 20260903191449 | 47 | 324 | 0.0 | 0.0 | 0.00 | 0.05 | 0.00 | 82 | 1019.5 |
| 20260903190951 | 47 | 324 | 0.0 | 0.0 | 0.00 | 0.05 | 0.00 | 82 | 1019.5 |
| 20260903190456 | 47 | 324 | 0.0 | 0.0 | 0.00 | 0.05 | 0.00 | 82 | 1019.4 |
| 20260903190452 | 47 | 324 | 0.0 | 0.0 | 0.00 | 0.05 | 0.00 | 82 | 1019.5 |
| 20260903190115 | 47 | 324 | 0.0 | 0.0 | 0.00 | 0.05 | 0.00 | 82 | 1019.4 |
| 20260903184950 | 47 | 324 | 0.0 | 1.0 | 0.00 | 0.05 | 0.00 | 82 | 1019.4 |
| 20260903184456 | 47 | 324 | 0.0 | 1.0 | 0.00 | 0.05 | 0.00 | 81 | 1019.4 |
| 20260903184450 | 47 | 324 | 0.0 | 1.0 | 0.00 | 0.05 | 0.00 | 82 | 1019.4 |
| 20260903183449 | 48 | 324 | 0.0 | 0.0 | 0.00 | 0.05 | 0.00 | 81 | 1019.4 |
| 20260903182957 | 48 | 324 | 0.0 | 1.0 | 0.00 | 0.05 | 0.00 | 81 | 1019.4 |
| 20260903182949 | 48 | 324 | 0.0 | 0.0 | 0.00 | 0.05 | 0.00 | 81 | 1019.4 |
| 20260903181947 | 48 | 324 | 0.0 | 1.0 | 0.00 | 0.05 | 0.00 | 81 | 1019.4 |
| 20260903181450 | 48 | 324 | 0.0 | 0.0 | 0.00 | 0.05 | 0.00 | 81 | 1019.4 |
| 20260903180948 | 48 | 324 | 0.0 | 0.0 | 0.00 | 0.05 | 0.00 | 81 | 1019.3 |
| 20260903180449 | 48 | 324 | 0.0 | 0.0 | 0.00 | 0.05 | 0.00 | 81 | 1019.3 |
| 20260903175948 | 48 | 324 | 0.0 | 0.0 | 0.00 | 0.05 | 0.00 | 81 | 1019.3 |
| 20260903175448 | 48 | 324 | 0.0 | 0.0 | 0.00 | 0.05 | 0.00 | 81 | 1019.3 |
| 20260903174947 | 49 | 324 | 0.0 | 0.0 | 0.00 | 0.05 | 0.00 | 80 | 1019.3 |
| 20260903174446 | 49 | 324 | 0.0 | 0.0 | 0.00 | 0.05 | 0.00 | 80 | 1019.3 |
| 20260903173945 | 49 | 324 | 0.0 | 0.0 | 0.00 | 0.05 | 0.00 | 79 | 1019.3 |
| 20260903173446 | 49 | 324 | 0.0 | 2.0 | 0.00 | 0.05 | 0.00 | 79 | 1019.4 |
| 20260903172945 | 49 | 324 | 0.0 | 2.0 | 0.00 | 0.05 | 0.00 | 81 | 1019.4 |
| 20260903172446 | 49 | 324 | 0.0 | 3.0 | 0.00 | 0.05 | 0.00 | 82 | 1019.4 |
| 20260903171948 | 49 | 323 | 0.0 | 3.0 | 0.00 | 0.05 | 0.00 | 82 | 1019.5 |
| 20260903171448 | 49 | 323 | 0.0 | 0.0 | 0.00 | 0.05 | 0.00 | 83 | 1019.5 |
| 20260903170946 | 49 | 323 | 0.0 | 0.0 | 0.00 | 0.05 | 0.00 | 83 | 1019.6 |
| 20260903165953 | 49 | 323 | 0.0 | 0.0 | 0.00 | 0.05 | 0.00 | 83 | 1019.6 |
| 20260903165946 | 49 | 323 | 0.0 | 1.0 | 0.00 | 0.05 | 0.00 | 83 | 1019.6 |
| 20260903164945 | 49 | 323 | 0.0 | 0.0 | 0.00 | 0.05 | 0.00 | 83 | 1019.7 |
| 20260903164445 | 49 | 323 | 0.0 | 0.0 | 0.00 | 0.05 | 0.00 | 83 | 1019.8 |
| 20260903163944 | 49 | 323 | 0.0 | 1.0 | 0.00 | 0.05 | 0.00 | 82 | 1019.8 |
| 20260903163441 | 49 | 323 | 0.0 | 1.0 | 0.00 | 0.05 | 0.00 | 82 | 1019.8 |
| 20260903162944 | 49 | 323 | 0.0 | 0.0 | 0.00 | 0.05 | 0.00 | 82 | 1019.9 |
| 20260903162443 | 49 | 323 | 0.0 | 1.0 | 0.00 | 0.05 | 0.00 | 82 | 1020.0 |
| 20260903161941 | 50 | 323 | 0.0 | 3.0 | 0.00 | 0.05 | 0.00 | 82 | 1020.0 |
| 20260903161440 | 50 | 323 | 0.0 | 3.0 | 0.00 | 0.05 | 0.00 | 81 | 1020.0 |
| 20260903160940 | 50 | 323 | 0.0 | 1.0 | 0.00 | 0.05 | 0.00 | 81 | 1020.0 |
| 20260903160438 | 50 | 323 | 0.0 | 1.0 | 0.00 | 0.05 | 0.00 | 80 | 1020.1 |
| 20260903155939 | 50 | 323 | 0.0 | 0.0 | 0.00 | 0.05 | 0.00 | 80 | 1020.1 |
| 20260903155439 | 51 | 323 | 0.0 | 0.0 | 0.00 | 0.05 | 0.00 | 80 | 1020.1 |
| 20260903154938 | 51 | 323 | 0.0 | 0.0 | 0.00 | 0.05 | 0.00 | 79 | 1020.1 |
| 20260903154439 | 51 | 323 | 0.0 | 0.0 | 0.00 | 0.05 | 0.00 | 79 | 1020.1 |
| 20260903153943 | 52 | 323 | 0.0 | 4.0 | 0.00 | 0.05 | 0.00 | 78 | 1020.2 |
| 20260903153937 | 51 | 323 | 0.0 | 0.0 | 0.00 | 0.05 | 0.00 | 78 | 1020.1 |
| 20260903153543 | 51 | 323 | 0.0 | 4.0 | 0.00 | 0.05 | 0.00 | 78 | 1020.2 |
| 20260903152435 | 52 | 322 | 0.0 | 0.0 | 0.00 | 0.05 | 0.00 | 77 | 1020.2 |
| 20260903151935 | 52 | 322 | 0.0 | 0.0 | 0.00 | 0.05 | 0.00 | 76 | 1020.2 |
| 20260903151435 | 52 | 322 | 0.0 | 2.0 | 0.00 | 0.05 | 0.00 | 76 | 1020.3 |
| 20260903150936 | 53 | 322 | 0.0 | 2.0 | 0.00 | 0.05 | 0.00 | 75 | 1020.3 |
| 20260903150436 | 53 | 322 | 0.0 | 4.0 | 0.00 | 0.05 | 0.00 | 75 | 1020.2 |
| 20260903145936 | 53 | 322 | 1.0 | 4.0 | 0.00 | 0.05 | 0.00 | 75 | 1020.2 |
| 20260903145440 | 53 | 321 | 2.0 | 7.0 | 0.00 | 0.05 | 0.00 | 74 | 1020.3 |
| 20260903145434 | 53 | 322 | 1.0 | 7.0 | 0.00 | 0.05 | 0.00 | 74 | 1020.2 |
| 20260903144438 | 53 | 321 | 3.0 | 7.0 | 0.00 | 0.05 | 0.00 | 74 | 1020.2 |
| 20260903143936 | 53 | 338 | 3.0 | 8.0 | 0.00 | 0.05 | 0.00 | 75 | 1020.3 |
| 20260903143442 | 53 | 294 | 2.0 | 6.0 | 0.00 | 0.05 | 0.00 | 75 | 1020.3 |
| 20260903143434 | 53 | 295 | 3.0 | 8.0 | 0.00 | 0.05 | 0.00 | 75 | 1020.3 |
| 20260903142435 | 53 | 291 | 2.0 | 6.0 | 0.00 | 0.05 | 0.00 | 76 | 1020.3 |
| 20260903141935 | 53 | 306 | 2.0 | 7.0 | 0.00 | 0.05 | 0.00 | 76 | 1020.3 |
| 20260903141435 | 53 | 306 | 2.0 | 7.0 | 0.00 | 0.05 | 0.00 | 77 | 1020.2 |
| 20260903140941 | 53 | 317 | 1.0 | 5.0 | 0.00 | 0.05 | 0.00 | 77 | 1020.4 |
| 20260903140935 | 53 | 317 | 1.0 | 5.0 | 0.00 | 0.05 | 0.00 | 77 | 1020.4 |
| 20260903135938 | 53 | 317 | 1.0 | 7.0 | 0.00 | 0.05 | 0.05 | 77 | 1020.5 |
| 20260903135934 | 53 | 317 | 0.0 | 3.0 | 0.00 | 0.05 | 0.05 | 76 | 1020.5 |
| 20260903134934 | 53 | 317 | 2.0 | 8.0 | 0.00 | 0.05 | 0.05 | 77 | 1020.4 |
| 20260903134434 | 53 | 303 | 2.0 | 8.0 | 0.00 | 0.05 | 0.05 | 77 | 1020.4 |
| 20260903133942 | 53 | 279 | 1.0 | 4.0 | 0.00 | 0.05 | 0.05 | 77 | 1020.3 |
| 20260903133935 | 53 | 280 | 1.0 | 4.0 | 0.00 | 0.05 | 0.05 | 77 | 1020.4 |
| 20260903132932 | 53 | 278 | 0.0 | 4.0 | 0.00 | 0.05 | 0.05 | 78 | 1020.4 |
| 20260903132430 | 53 | 275 | 0.0 | 1.0 | 0.00 | 0.05 | 0.05 | 78 | 1020.4 |
| 20260903131930 | 53 | 275 | 0.0 | 1.0 | 0.00 | 0.05 | 0.05 | 78 | 1020.4 |
| 20260903131436 | 53 | 274 | 0.0 | 2.0 | 0.00 | 0.05 | 0.05 | 78 | 1020.5 |
| 20260903131430 | 53 | 275 | 0.0 | 2.0 | 0.00 | 0.05 | 0.05 | 78 | 1020.5 |
| 20260903130430 | 53 | 274 | 0.0 | 4.0 | 0.00 | 0.05 | 0.05 | 78 | 1020.4 |
| 20260903125929 | 53 | 274 | 1.0 | 6.0 | 0.00 | 0.05 | 0.05 | 78 | 1020.5 |
| 20260903125429 | 53 | 274 | 1.0 | 6.0 | 0.00 | 0.05 | 0.05 | 79 | 1020.5 |
| 20260903124930 | 53 | 240 | 0.0 | 4.0 | 0.00 | 0.05 | 0.05 | 79 | 1020.5 |
| 20260903124429 | 53 | 239 | 1.0 | 4.0 | 0.00 | 0.05 | 0.05 | 79 | 1020.4 |
| 20260903123931 | 53 | 231 | 0.0 | 2.0 | 0.00 | 0.05 | 0.05 | 79 | 1020.4 |
| 20260903123926 | 53 | 231 | 0.0 | 4.0 | 0.00 | 0.05 | 0.05 | 79 | 1020.4 |
| 20260903122926 | 53 | 230 | 0.0 | 1.0 | 0.00 | 0.05 | 0.05 | 79 | 1020.4 |
| 20260903122426 | 53 | 230 | 0.0 | 1.0 | 0.00 | 0.05 | 0.05 | 79 | 1020.4 |
| 20260903121927 | 53 | 229 | 0.0 | 1.0 | 0.00 | 0.05 | 0.05 | 79 | 1020.4 |
| 20260903121426 | 54 | 229 | 0.0 | 1.0 | 0.00 | 0.05 | 0.05 | 79 | 1020.4 |
| 20260903120926 | 54 | 229 | 0.0 | 1.0 | 0.00 | 0.05 | 0.05 | 79 | 1020.4 |
| 20260903120426 | 54 | 229 | 0.0 | 0.0 | 0.00 | 0.05 | 0.05 | 79 | 1020.3 |
| 20260903115932 | 54 | 229 | 0.0 | 3.0 | 0.00 | 0.05 | 0.05 | 79 | 1020.1 |
| 20260903115926 | 54 | 229 | 0.0 | 1.0 | 0.00 | 0.05 | 0.05 | 79 | 1020.2 |
| 20260903114930 | 54 | 218 | 0.0 | 0.0 | 0.00 | 0.05 | 0.05 | 79 | 1020.1 |
| 20260903114926 | 54 | 229 | 0.0 | 3.0 | 0.00 | 0.05 | 0.05 | 79 | 1020.2 |
| 20260903113926 | 54 | 217 | 0.0 | 0.0 | 0.00 | 0.05 | 0.05 | 78 | 1020.1 |
| 20260903113426 | 54 | 217 | 0.0 | 0.0 | 0.00 | 0.05 | 0.05 | 78 | 1020.1 |
| 20260903112923 | 54 | 216 | 0.0 | 0.0 | 0.00 | 0.05 | 0.05 | 78 | 1020.0 |
| 20260903112424 | 55 | 216 | 0.0 | 1.0 | 0.00 | 0.05 | 0.05 | 78 | 1019.9 |
| 20260903111926 | 55 | 216 | 0.0 | 5.0 | 0.00 | 0.05 | 0.05 | 78 | 1019.9 |
| 20260903111426 | 55 | 210 | 0.0 | 5.0 | 0.00 | 0.05 | 0.05 | 79 | 1019.9 |
| 20260903110931 | 55 | 254 | 0.0 | 5.0 | 0.00 | 0.05 | 0.05 | 79 | 1019.5 |
| 20260903110924 | 55 | 226 | 0.0 | 4.0 | 0.00 | 0.05 | 0.05 | 79 | 1019.7 |
| 20260903110424 | 55 | 234 | 0.0 | 5.0 | 0.00 | 0.05 | 0.05 | 79 | 1019.5 |
| 20260903105426 | 55 | 234 | 1.0 | 5.0 | 0.00 | 0.05 | 0.05 | 80 | 1019.5 |
| 20260903104924 | 56 | 209 | 1.0 | 7.0 | 0.00 | 0.05 | 0.05 | 79 | 1019.5 |
| 20260903104426 | 56 | 198 | 2.0 | 8.0 | 0.00 | 0.05 | 0.05 | 79 | 1019.4 |
| 20260903103923 | 56 | 261 | 3.0 | 9.0 | 0.00 | 0.05 | 0.05 | 78 | 1019.4 |
| 20260903103424 | 56 | 193 | 3.0 | 10.0 | 0.00 | 0.05 | 0.05 | 78 | 1019.2 |
| 20260903102931 | 56 | 237 | 2.0 | 10.0 | 0.00 | 0.05 | 0.05 | 79 | 1019.1 |
| 20260903102926 | 56 | 262 | 3.0 | 10.0 | 0.00 | 0.05 | 0.05 | 79 | 1019.2 |
| 20260903101924 | 56 | 251 | 2.0 | 9.0 | 0.00 | 0.05 | 0.05 | 79 | 1019.2 |
| 20260903101424 | 55 | 220 | 2.0 | 9.0 | 0.00 | 0.05 | 0.05 | 79 | 1019.1 |
| 20260903100924 | 55 | 247 | 1.0 | 9.0 | 0.00 | 0.05 | 0.05 | 80 | 1019.1 |
| 20260903100426 | 55 | 236 | 0.0 | 6.0 | 0.00 | 0.05 | 0.05 | 81 | 1018.9 |
| 20260903095926 | 55 | 231 | 0.0 | 2.0 | 0.00 | 0.05 | 0.05 | 81 | 1018.9 |
| 20260903095429 | 56 | 225 | 0.0 | 0.0 | 0.00 | 0.05 | 0.05 | 80 | 1018.7 |
| 20260903095425 | 56 | 226 | 0.0 | 1.0 | 0.00 | 0.05 | 0.05 | 80 | 1018.8 |
| 20260903094425 | 56 | 225 | 0.0 | 0.0 | 0.00 | 0.05 | 0.05 | 80 | 1018.7 |
| 20260903093924 | 56 | 225 | 0.0 | 0.0 | 0.00 | 0.05 | 0.05 | 80 | 1018.6 |
| 20260903093422 | 56 | 225 | 0.0 | 0.0 | 0.00 | 0.05 | 0.05 | 80 | 1018.5 |
| 20260903092923 | 56 | 225 | 0.0 | 0.0 | 0.00 | 0.05 | 0.05 | 80 | 1018.4 |
| 20260903092422 | 56 | 225 | 0.0 | 1.0 | 0.00 | 0.05 | 0.05 | 80 | 1018.3 |
| 20260903091928 | 56 | 225 | 0.0 | 0.0 | 0.00 | 0.05 | 0.05 | 78 | 1018.3 |
| 20260903091922 | 56 | 225 | 0.0 | 1.0 | 0.00 | 0.05 | 0.05 | 79 | 1018.3 |
| 20260903090924 | 57 | 225 | 0.0 | 0.0 | 0.00 | 0.05 | 0.05 | 78 | 1018.2 |
| 20260903090422 | 57 | 225 | 0.0 | 0.0 | 0.00 | 0.05 | 0.05 | 78 | 1018.1 |
| 20260903085925 | 57 | 225 | 0.0 | 0.0 | 0.00 | 0.05 | 0.05 | 77 | 1018.0 |
| 20260903085425 | 57 | 225 | 0.0 | 1.0 | 0.00 | 0.05 | 0.05 | 77 | 1017.9 |
| 20260903084923 | 57 | 225 | 0.0 | 2.0 | 0.00 | 0.05 | 0.05 | 76 | 1017.8 |
| 20260903084424 | 57 | 226 | 0.0 | 3.0 | 0.00 | 0.05 | 0.05 | 76 | 1017.7 |
| 20260903083924 | 57 | 227 | 1.0 | 8.0 | 0.00 | 0.05 | 0.05 | 76 | 1017.6 |
| 20260903083422 | 57 | 204 | 1.0 | 8.0 | 0.00 | 0.05 | 0.05 | 76 | 1017.6 |
| 20260903082924 | 57 | 211 | 1.0 | 5.0 | 0.00 | 0.05 | 0.05 | 76 | 1017.4 |
| 20260903082427 | 58 | 204 | 1.0 | 6.0 | 0.00 | 0.05 | 0.05 | 75 | 1017.3 |
| 20260903082421 | 57 | 204 | 1.0 | 5.0 | 0.00 | 0.05 | 0.05 | 76 | 1017.3 |
| 20260903082047 | 58 | 206 | 2.0 | 6.0 | 0.00 | 0.05 | 0.05 | 75 | 1017.3 |
| 20260903081548 | 58 | 243 | 1.0 | 5.0 | 0.00 | 0.05 | 0.05 | 75 | 1017.2 |
| 20260903080420 | 58 | 226 | 1.0 | 5.0 | 0.00 | 0.05 | 0.05 | 75 | 1017.1 |
| 20260903075920 | 58 | 224 | 1.0 | 4.0 | 0.00 | 0.05 | 0.05 | 74 | 1017.0 |
| 20260903075420 | 58 | 213 | 1.0 | 4.0 | 0.00 | 0.05 | 0.05 | 74 | 1017.0 |
| 20260903075050 | 58 | 242 | 2.0 | 9.0 | 0.00 | 0.05 | 0.05 | 73 | 1016.8 |
| 20260903074925 | 58 | 214 | 2.0 | 9.0 | 0.00 | 0.05 | 0.05 | 73 | 1016.8 |
| 20260903074921 | 58 | 219 | 1.0 | 5.0 | 0.00 | 0.05 | 0.05 | 74 | 1016.9 |
| 20260903073421 | 59 | 247 | 2.0 | 8.0 | 0.00 | 0.05 | 0.05 | 73 | 1016.8 |
| 20260903072923 | 59 | 193 | 2.0 | 9.0 | 0.00 | 0.05 | 0.05 | 73 | 1016.7 |
| 20260903072421 | 59 | 222 | 2.0 | 9.0 | 0.00 | 0.05 | 0.05 | 72 | 1016.6 |
| 20260903071919 | 59 | 208 | 2.0 | 6.0 | 0.00 | 0.05 | 0.05 | 72 | 1016.4 |
| 20260903071418 | 59 | 219 | 2.0 | 7.0 | 0.00 | 0.05 | 0.05 | 71 | 1016.3 |
| 20260903070917 | 59 | 236 | 3.0 | 9.0 | 0.00 | 0.05 | 0.05 | 70 | 1016.2 |
| 20260903070417 | 59 | 224 | 2.0 | 9.0 | 0.00 | 0.05 | 0.05 | 70 | 1016.1 |
| 20260903065918 | 60 | 204 | 2.0 | 10.0 | 0.00 | 0.05 | 0.05 | 70 | 1016.1 |
| 20260903065425 | 60 | 211 | 2.0 | 8.0 | 0.00 | 0.05 | 0.05 | 69 | 1015.9 |
| 20260903065419 | 60 | 205 | 3.0 | 10.0 | 0.00 | 0.05 | 0.05 | 70 | 1016.0 |
| 20260903064419 | 60 | 235 | 2.0 | 7.0 | 0.00 | 0.05 | 0.05 | 69 | 1015.9 |
| 20260903063918 | 60 | 235 | 2.0 | 7.0 | 0.00 | 0.05 | 0.05 | 70 | 1015.8 |
| 20260903063417 | 61 | 249 | 2.0 | 5.0 | 0.00 | 0.05 | 0.05 | 69 | 1015.8 |
| 20260903062916 | 61 | 209 | 2.0 | 6.0 | 0.00 | 0.05 | 0.05 | 69 | 1015.6 |
| 20260903062415 | 61 | 204 | 3.0 | 8.0 | 0.00 | 0.05 | 0.05 | 69 | 1015.5 |
| 20260903061921 | 61 | 189 | 3.0 | 9.0 | 0.00 | 0.05 | 0.05 | 66 | 1015.4 |
| 20260903061916 | 61 | 212 | 3.0 | 9.0 | 0.00 | 0.05 | 0.05 | 68 | 1015.5 |
| 20260903060917 | 62 | 199 | 3.0 | 9.0 | 0.00 | 0.05 | 0.05 | 66 | 1015.3 |
| 20260903060416 | 62 | 221 | 2.0 | 8.0 | 0.00 | 0.05 | 0.05 | 65 | 1015.3 |
| 20260903055922 | 63 | 210 | 2.0 | 5.0 | 0.00 | 0.05 | 0.05 | 64 | 1015.1 |
| 20260903055916 | 63 | 193 | 2.0 | 8.0 | 0.00 | 0.05 | 0.05 | 65 | 1015.1 |
| 20260903055544 | 63 | 299 | 2.0 | 6.0 | 0.00 | 0.05 | 0.05 | 65 | 1015.1 |
| 20260903054417 | 62 | 271 | 2.0 | 9.0 | 0.00 | 0.05 | 0.05 | 65 | 1015.0 |
| 20260903053925 | 62 | 212 | 1.0 | 8.0 | 0.00 | 0.05 | 0.05 | 63 | 1014.9 |
| 20260903053918 | 62 | 199 | 2.0 | 9.0 | 0.00 | 0.05 | 0.05 | 65 | 1015.0 |
| 20260903052415 | 63 | 180 | 1.0 | 6.0 | 0.00 | 0.05 | 0.05 | 63 | 1014.8 |
| 20260903051915 | 63 | 223 | 1.0 | 6.0 | 0.00 | 0.05 | 0.05 | 65 | 1014.8 |
| 20260903051415 | 63 | 226 | 1.0 | 6.0 | 0.00 | 0.05 | 0.05 | 65 | 1014.8 |
| 20260903050915 | 63 | 219 | 2.0 | 7.0 | 0.00 | 0.05 | 0.05 | 65 | 1014.7 |
| 20260903050414 | 62 | 212 | 2.0 | 8.0 | 0.00 | 0.05 | 0.05 | 64 | 1014.7 |
| 20260903045922 | 62 | 231 | 3.0 | 13.0 | 0.00 | 0.05 | 0.05 | 64 | 1014.6 |
| 20260903045415 | 62 | 245 | 2.0 | 13.0 | 0.00 | 0.05 | 0.05 | 64 | 1014.7 |
| 20260903044915 | 62 | 243 | 2.0 | 6.0 | 0.00 | 0.05 | 0.05 | 65 | 1014.6 |
| 20260903044414 | 62 | 243 | 2.0 | 8.0 | 0.00 | 0.05 | 0.05 | 68 | 1014.6 |
| 20260903043912 | 62 | 250 | 3.0 | 11.0 | 0.00 | 0.05 | 0.05 | 69 | 1014.5 |
| 20260903043411 | 61 | 204 | 3.0 | 11.0 | 0.00 | 0.05 | 0.05 | 69 | 1014.5 |
| 20260903042912 | 61 | 214 | 3.0 | 11.0 | 0.00 | 0.05 | 0.05 | 69 | 1014.5 |
| 20260903042411 | 61 | 212 | 3.0 | 11.0 | 0.00 | 0.05 | 0.05 | 69 | 1014.4 |
| 20260903041912 | 61 | 208 | 4.0 | 11.0 | 0.00 | 0.05 | 0.05 | 68 | 1014.3 |
| 20260903041412 | 61 | 238 | 4.0 | 11.0 | 0.00 | 0.05 | 0.05 | 68 | 1014.3 |
| 20260903040911 | 61 | 189 | 4.0 | 13.0 | 0.00 | 0.05 | 0.05 | 68 | 1014.2 |
| 20260903040412 | 61 | 224 | 3.0 | 13.0 | 0.00 | 0.05 | 0.05 | 67 | 1014.1 |
| 20260903035912 | 61 | 233 | 2.0 | 10.0 | 0.00 | 0.05 | 0.05 | 68 | 1014.1 |
| 20260903035417 | 60 | 243 | 3.0 | 13.0 | 0.00 | 0.05 | 0.05 | 71 | 1014.0 |
| 20260903035411 | 60 | 227 | 3.0 | 13.0 | 0.00 | 0.05 | 0.05 | 70 | 1014.0 |
| 20260903034413 | 60 | 254 | 2.0 | 11.0 | 0.00 | 0.05 | 0.05 | 75 | 1014.0 |
| 20260903033911 | 59 | 264 | 1.0 | 7.0 | 0.00 | 0.05 | 0.05 | 78 | 1014.1 |
| 20260903033418 | 60 | 253 | 2.0 | 9.0 | 0.00 | 0.05 | 0.05 | 77 | 1014.0 |
| 20260903033412 | 59 | 211 | 1.0 | 5.0 | 0.00 | 0.05 | 0.05 | 77 | 1014.0 |